Lake Hood, AK

5:35 PM AKDT on May 22, 2018 (GMT -0800)
Lake Hood

Weather History for PALH - December, 2012

Change the Weather History Date:

Sunday, December 2, 2012

  Actual Average Record
Temperature  
Mean Temperature 8 °F -  
Max Temperature 16 °F 22 °F 41 °F (2007)
Min Temperature 0 °F 12 °F -9 °F (2003)
Degree Days  
Heating Degree Days 57    
Moisture  
Dew Point 1 °F    
Average Humidity 72    
Maximum Humidity 84    
Minimum Humidity 49    
Precipitation  
Precipitation 0.00 in - - ()
Sea Level Pressure  
Sea Level Pressure 29.37 in    
Wind  
Wind Speed 3 mph (SE)    
Max Wind Speed 12 mph    
Max Gust Speed -    
Visibility 10 miles    
Events      
Averages and records for this station are not official NWS values.
T = Trace of Precipitation, MM = Missing Value Source: NWS Daily Summary

Daily Weather History Graph

Daily Weather History Graph

Search for Another Location

Airport or City:

Astronomy

Dec. 02, 2012 Rise Set
Actual Time 9:48 AM AKST 3:49 PM AKST
Civil Twilight 8:50 AM AKST 4:48 PM AKST
Nautical Twilight 7:52 AM AKST 5:46 PM AKST
Astronomical Twilight 6:59 AM AKST 6:38 PM AKST
Moon 8:24 PM AKST (12/2) 12:11 PM AKST (12/2)
Length of Visible Light 7h 57m
Length of Day
6h 00m
Waning Gibbous, 84% of the Moon is Illuminated
Dec 2
Waning Gibbous
Dec 6
Last Quarter
Dec 12
New
Dec 19
First Quarter
Dec 28
Full

Hourly Weather History & Observations

Time (AKST) Temp. Windchill Dew Point Humidity Pressure Visibility Wind Dir Wind Speed Gust Speed Precip Events Conditions
12:53 AM 1.9 °F -5.6 °F -2.0 °F 83% 29.44 in 10.0 mi South 3.5 mph - N/A   Clear
1:53 AM 3.9 °F - -0.0 °F 84% 29.43 in 10.0 mi Calm Calm - N/A   Clear
3:53 AM -0.0 °F - -5.1 °F 79% 29.43 in 10.0 mi Calm Calm - N/A   Clear
4:53 AM 5.0 °F -5.6 °F -0.0 °F 80% 29.42 in 10.0 mi South 5.8 mph - N/A   Clear
5:53 AM 1.9 °F -7.6 °F -5.1 °F 72% 29.42 in 10.0 mi SSE 4.6 mph - N/A   Clear
6:53 AM 1.0 °F -8.7 °F -4.0 °F 79% 29.41 in 10.0 mi South 4.6 mph - N/A   Clear
7:53 AM 3.0 °F - -2.9 °F 76% 29.40 in 10.0 mi Calm Calm - N/A   Clear
8:53 AM 3.0 °F - -2.9 °F 76% 29.40 in 10.0 mi Calm Calm - N/A   Clear
9:53 AM 1.9 °F - -2.9 °F 80% 29.39 in 10.0 mi Calm Calm - N/A   Clear
10:53 AM 6.1 °F - 1.0 °F 80% 29.38 in 10.0 mi Calm Calm - N/A   Clear
11:53 AM 7.0 °F 0.1 °F 1.9 °F 80% 29.37 in 10.0 mi SE 3.5 mph - N/A   Clear
12:53 PM 12.0 °F 4.1 °F 7.0 °F 80% 29.37 in 10.0 mi SSE 4.6 mph - N/A   Clear
1:53 PM 15.1 °F 6.4 °F 9.0 °F 77% 29.36 in 10.0 mi SSE 5.8 mph - N/A   Clear
2:53 PM 15.1 °F 7.7 °F 7.0 °F 70% 29.34 in 10.0 mi South 4.6 mph - N/A   Clear
3:53 PM 12.9 °F 5.2 °F 6.1 °F 74% 29.33 in 10.0 mi South 4.6 mph - N/A   Clear
4:53 PM 10.0 °F 3.6 °F 3.9 °F 76% 29.33 in 10.0 mi SSE 3.5 mph - N/A   Clear
5:53 PM 9.0 °F 2.4 °F 3.0 °F 77% 29.33 in 10.0 mi ESE 3.5 mph - N/A   Clear
6:53 PM 15.1 °F 7.7 °F 3.0 °F 59% 29.32 in 10.0 mi North 4.6 mph - N/A   Clear
7:53 PM 16.0 °F 5.3 °F 3.0 °F 57% 29.32 in 10.0 mi North 8.1 mph - N/A   Clear
8:53 PM 16.0 °F 3.6 °F 1.9 °F 54% 29.32 in 10.0 mi NNE 10.4 mph - N/A   Clear
9:53 PM 10.9 °F - -0.0 °F 61% 29.33 in 10.0 mi Calm Calm - N/A   Clear
10:53 PM 14.0 °F 0.5 °F 1.0 °F 56% 29.34 in 10.0 mi NNE 11.5 mph - N/A   Clear
11:53 PM 15.1 °F 3.3 °F -0.9 °F 49% 29.36 in 10.0 mi North 9.2 mph - N/A   Clear